Location: Seattle
(47.6064°N, 122.3308°W)
Time: 21:18:51
(UTC-07:00)

ITUPSAT 1 - Pass Details

Date: 09 April 2023
Orbit: 697 x 710 km, 98.5° (Epoch: 29 May)

Event Time Altitude Azimuth Distance (km) Brightness Sun altitude
Rises 23:38:06 0° 3° (N) 3,118 ? -30.8°
Reaches altitude 10° 23:40:45 10° 350° (N) 2,192 ? -31.0°
Maximum altitude 23:44:29 23° 298° (WNW) 1,473 ? -31.3°
Enters shadow 23:46:05 20° 270° (W) 1,624 ? -31.4°
